Total_Precipitation_Accumulation
1.72 1.81 1.54 1.46 1.43 1.63 1.88 1.84 1.71 1.77 1.87 1.89 1.71 1.61 1.40 1.07 0.94 0.93 1.03 1.31 1.31 1.30 1.47 1.51 1.47 1.40 1.26 1.10 1.01 0.91 0.88 0.85 0.74 0.59 0.51 0.39 0.30 0.27 0.18 0.11 0.08 0.07 0.06
1.65 1.54 1.53 1.53 1.44 1.60 1.65 1.72 1.76 1.91 1.96 2.05 1.77 1.64 1.49 1.32 1.20 1.17 1.13 1.36 1.34 1.23 1.32 1.51 1.55 1.55 1.56 1.39 1.21 1.13 1.01 0.94 0.81 0.63 0.54 0.47 0.38 0.33 0.27 0.22 0.20 0.14 0.09
1.55 1.57 1.50 1.39 1.43 1.53 1.61 1.68 1.71 1.78 1.68 1.74 1.65 1.61 1.55 1.42 1.35 1.26 1.18 1.15 1.05 1.15 1.27 1.39 1.48 1.49 1.58 1.55 1.49 1.39 1.18 0.99 0.85 0.67 0.53 0.48 0.44 0.36 0.30 0.28 0.28 0.23 0.17
1.29 1.34 1.24 1.23 1.33 1.26 1.25 1.29 1.28 1.32 1.34 1.46 1.44 1.32 1.30 1.31 1.28 1.27 1.16 1.03 0.99 0.84 1.08 1.38 1.49 1.38 1.50 1.63 1.72 1.73 1.40 1.05 0.83 0.70 0.57 0.48 0.46 0.36 0.27 0.21 0.21 0.25 0.20
0.79 0.84 0.80 0.84 0.91 0.92 0.92 0.89 1.04 1.12 1.16 1.27 1.31 1.13 1.08 1.17 1.18 1.18 1.10 0.92 0.97 0.88 0.85 1.05 1.27 1.25 1.45 1.71 1.92 1.96 1.74 1.34 0.98 0.85 0.73 0.62 0.56 0.43 0.30 0.23 0.20 0.18 0.16
0.62 0.59 0.57 0.58 0.57 0.60 0.66 0.70 0.74 0.84 0.86 0.92 0.93 0.89 0.91 0.86 0.94 0.95 0.87 0.85 0.80 0.69 0.69 0.86 1.12 1.01 1.26 1.56 1.76 1.86 1.90 1.76 1.40 1.11 0.94 0.86 0.81 0.61 0.37 0.27 0.23 0.20 0.16
0.44 0.45 0.41 0.41 0.40 0.39 0.40 0.44 0.52 0.57 0.60 0.69 0.73 0.68 0.63 0.60 0.64 0.63 0.65 0.71 0.67 0.66 0.70 0.77 0.91 0.95 0.93 1.06 1.21 1.45 1.81 1.96 1.79 1.47 1.22 1.04 0.98 0.83 0.52 0.36 0.28 0.25 0.25
0.30 0.30 0.30 0.31 0.31 0.29 0.30 0.33 0.36 0.37 0.40 0.51 0.58 0.60 0.52 0.49 0.47 0.42 0.50 0.48 0.50 0.66 0.70 0.68 0.76 0.91 0.92 1.05 0.89 1.00 1.45 1.80 2.04 1.91 1.63 1.32 1.10 0.91 0.70 0.53 0.38 0.30 0.28
0.22 0.23 0.23 0.24 0.27 0.28 0.29 0.33 0.32 0.33 0.32 0.34 0.44 0.56 0.52 0.43 0.37 0.35 0.38 0.42 0.50 0.59 0.61 0.72 0.73 0.73 0.75 0.90 1.06 1.07 1.16 1.33 1.83 2.17 2.06 1.63 1.22 0.95 0.83 0.76 0.64 0.50 0.39
0.18 0.17 0.17 0.16 0.18 0.23 0.29 0.29 0.34 0.34 0.32 0.26 0.30 0.39 0.44 0.46 0.45 0.39 0.37 0.39 0.49 0.55 0.57 0.59 0.61 0.70 0.82 0.94 1.04 1.07 0.92 0.98 1.35 1.81 2.05 1.91 1.50 1.14 0.95 0.92 1.02 0.94 0.69
0.18 0.18 0.18 0.17 0.15 0.15 0.20 0.23 0.31 0.35 0.36 0.31 0.29 0.33 0.36 0.38 0.41 0.41 0.32 0.31 0.38 0.37 0.41 0.47 0.59 0.65 0.75 0.95 1.15 1.03 0.84 0.78 0.94 1.27 1.55 1.69 1.63 1.37 1.11 1.01 1.23 1.34 1.12
0.18 0.17 0.18 0.19 0.19 0.18 0.15 0.15 0.20 0.27 0.34 0.36 0.32 0.30 0.37 0.39 0.39 0.42 0.31 0.24 0.28 0.25 0.28 0.32 0.44 0.57 0.72 0.88 0.90 0.90 0.91 0.85 0.85 0.94 1.08 1.25 1.41 1.40 1.30 1.30 1.45 1.61 1.60
0.16 0.16 0.16 0.18 0.19 0.20 0.19 0.17 0.16 0.19 0.26 0.32 0.31 0.32 0.34 0.33 0.40 0.41 0.33 0.27 0.30 0.31 0.41 0.40 0.45 0.63 0.70 0.91 0.89 0.90 0.90 0.86 0.75 0.69 0.74 0.83 0.94 1.12 1.27 1.34 1.48 1.63 1.76
0.22 0.21 0.16 0.15 0.17 0.18 0.18 0.18 0.17 0.17 0.21 0.26 0.28 0.38 0.37 0.29 0.36 0.38 0.39 0.44 0.43 0.45 0.52 0.50 0.59 0.83 1.04 1.07 1.06 0.94 0.77 0.74 0.65 0.60 0.55 0.58 0.64 0.75 0.85 0.97 1.11 1.23 1.33
0.23 0.21 0.18 0.15 0.15 0.16 0.17 0.18 0.18 0.20 0.23 0.26 0.32 0.41 0.42 0.39 0.40 0.41 0.45 0.56 0.62 0.54 0.54 0.64 0.76 0.85 0.95 0.96 0.96 0.85 0.68 0.68 0.61 0.55 0.50 0.47 0.48 0.53 0.60 0.64 0.68 0.76 0.83
0.19 0.17 0.16 0.14 0.12 0.13 0.16 0.17 0.19 0.23 0.26 0.32 0.39 0.45 0.51 0.51 0.51 0.51 0.52 0.60 0.73 0.71 0.66 0.67 0.75 0.76 0.76 0.62 0.64 0.64 0.61 0.63 0.55 0.50 0.48 0.45 0.42 0.43 0.46 0.51 0.54 0.56 0.59
0.18 0.16 0.15 0.14 0.13 0.13 0.15 0.18 0.20 0.22 0.25 0.32 0.38 0.44 0.48 0.55 0.62 0.63 0.68 0.70 0.73 0.84 0.78 0.66 0.77 0.86 0.78 0.60 0.51 0.51 0.53 0.53 0.51 0.50 0.47 0.46 0.44 0.43 0.42 0.41 0.45 0.48 0.48
0.15 0.15 0.15 0.13 0.11 0.11 0.14 0.19 0.22 0.22 0.25 0.29 0.36 0.46 0.50 0.52 0.58 0.65 0.76 0.79 0.81 0.93 0.93 0.78 0.85 0.94 0.86 0.74 0.61 0.53 0.44 0.43 0.44 0.48 0.47 0.48 0.47 0.44 0.42 0.40 0.38 0.37 0.37
0.15 0.15 0.15 0.13 0.11 0.10 0.11 0.14 0.19 0.23 0.27 0.29 0.34 0.42 0.50 0.58 0.61 0.65 0.75 0.79 0.85 1.00 1.05 0.96 0.96 1.06 1.09 0.88 0.66 0.51 0.42 0.42 0.39 0.43 0.45 0.47 0.47 0.44 0.40 0.39 0.40 0.36 0.32
0.13 0.15 0.16 0.15 0.15 0.13 0.10 0.10 0.12 0.16 0.21 0.27 0.35 0.39 0.43 0.55 0.64 0.69 0.76 0.88 0.96 1.04 1.12 1.10 1.13 1.24 1.24 1.10 0.85 0.57 0.48 0.45 0.43 0.39 0.42 0.42 0.43 0.41 0.38 0.34 0.33 0.33 0.33
0.12 0.16 0.18 0.19 0.18 0.16 0.10 0.10 0.13 0.13 0.16 0.19 0.26 0.33 0.34 0.40 0.49 0.61 0.69 0.80 0.97 1.12 1.28 1.33 1.34 1.50 1.46 1.26 0.99 0.70 0.58 0.52 0.49 0.46 0.43 0.37 0.35 0.33 0.31 0.31 0.30 0.30 0.29
0.18 0.23 0.23 0.23 0.23 0.16 0.11 0.09 0.10 0.12 0.15 0.18 0.23 0.29 0.30 0.30 0.33 0.38 0.49 0.63 0.78 0.95 1.16 1.34 1.47 1.56 1.62 1.48 1.27 1.02 0.71 0.53 0.49 0.50 0.48 0.46 0.42 0.38 0.34 0.30 0.31 0.29 0.29
0.23 0.27 0.29 0.30 0.29 0.29 0.21 0.13 0.10 0.12 0.16 0.20 0.23 0.27 0.22 0.18 0.26 0.31 0.36 0.43 0.53 0.64 0.80 1.01 1.21 1.31 1.49 1.60 1.47 1.18 0.90 0.70 0.56 0.53 0.52 0.48 0.47 0.45 0.42 0.38 0.40 0.34 0.30
0.29 0.31 0.31 0.33 0.37 0.36 0.26 0.17 0.14 0.15 0.18 0.21 0.25 0.28 0.28 0.26 0.28 0.34 0.40 0.39 0.39 0.42 0.49 0.60 0.77 1.00 1.21 1.43 1.48 1.37 1.27 1.02 0.79 0.63 0.58 0.50 0.44 0.42 0.43 0.41 0.41 0.37 0.34
0.38 0.42 0.44 0.45 0.47 0.46 0.35 0.21 0.17 0.20 0.25 0.25 0.27 0.32 0.36 0.33 0.28 0.25 0.33 0.35 0.35 0.34 0.34 0.42 0.55 0.76 1.01 1.19 1.36 1.35 1.25 1.11 0.90 0.67 0.55 0.48 0.41 0.39 0.39 0.36 0.36 0.37 0.35
0.46 0.49 0.52 0.58 0.62 0.62 0.51 0.31 0.24 0.26 0.32 0.35 0.40 0.43 0.40 0.33 0.30 0.23 0.28 0.34 0.32 0.31 0.36 0.37 0.43 0.54 0.67 0.92 1.12 1.13 1.05 0.97 0.86 0.67 0.50 0.44 0.39 0.38 0.40 0.31 0.26 0.27 0.29